Wind_Speed
13 13 12 12 10 7 6 4 1 2 5 7 9 10 11 14 16 18 19 20 19 17 15 15 15 14 14 14 13 12 11 10 10 9 6 4 2 2 4 6 7 8 8 9
14 13 14 14 12 10 8 7 6 5 6 6 7 8 9 12 14 16 18 19 19 17 16 15 15 15 14 14 13 13 12 11 10 9 7 5 3 3 3 4 6 7 8 8
16 16 15 14 12 11 10 10 10 10 9 9 7 7 8 10 12 15 17 18 18 17 16 15 15 15 14 13 13 13 12 11 10 9 8 7 5 4 4 5 6 7 8 9
18 17 16 14 12 11 12 13 13 12 11 10 9 8 7 9 11 14 16 17 18 17 17 15 14 14 14 13 13 13 13 12 11 10 8 7 6 5 5 5 6 8 9 10
20 19 17 15 13 13 13 13 12 10 10 9 9 9 7 9 10 13 15 17 17 17 17 16 15 14 13 13 13 13 13 13 12 11 10 8 7 5 6 6 7 8 10 10
21 21 19 16 15 14 14 13 12 10 8 6 7 8 8 10 11 12 15 17 17 17 17 16 14 13 13 13 13 14 13 12 12 11 10 9 8 6 5 5 6 7 8 9
22 21 19 17 16 15 15 14 13 12 9 7 7 8 8 9 9 12 15 17 17 16 16 14 13 13 12 12 12 13 13 13 12 11 11 10 8 7 6 5 5 7 8 9
24 22 20 17 15 15 15 15 15 14 12 11 9 9 9 9 9 12 15 17 17 15 14 13 14 13 12 12 12 13 13 13 13 12 12 10 9 7 6 6 6 7 7 8
24 22 21 20 17 16 15 15 15 15 14 13 11 10 10 10 11 13 15 17 17 16 15 14 13 14 13 12 12 13 13 13 13 13 12 11 10 9 7 6 6 7 8 8
26 25 24 23 21 19 17 16 17 17 17 16 14 12 10 11 12 14 15 17 17 16 15 13 13 13 13 12 12 12 13 13 13 13 12 11 10 9 8 7 6 6 7 7
28 28 26 26 25 21 18 18 18 19 19 18 18 16 15 15 16 16 16 17 16 16 15 14 13 13 12 12 12 12 13 13 13 13 12 12 11 9 9 9 7 6 7 7
29 29 29 28 25 23 21 19 18 20 19 20 21 19 18 19 19 19 18 18 17 16 16 15 13 13 13 13 12 12 13 13 13 13 13 12 11 10 9 9 8 7 8 8
30 32 32 31 29 27 25 22 19 19 20 22 23 22 21 22 21 21 20 19 18 17 16 15 14 14 14 13 13 12 13 13 14 14 14 13 12 11 11 10 9 9 9 10
32 34 34 33 30 29 27 24 20 20 22 22 22 22 22 23 23 22 21 21 19 18 16 16 15 14 14 14 13 13 13 14 14 15 14 14 14 13 13 12 11 10 11 12
35 36 36 34 33 33 31 28 25 23 22 22 21 22 22 23 23 23 23 22 21 19 18 16 16 15 14 14 15 15 14 15 15 15 15 15 15 14 14 14 13 13 13 13
39 39 38 36 35 35 35 32 29 26 24 23 22 21 22 25 27 28 27 25 23 21 19 18 17 16 16 16 16 16 16 16 17 17 16 16 15 15 15 15 15 14 13 14
41 40 39 38 36 36 37 34 32 29 27 26 25 23 23 26 28 29 29 28 25 24 22 19 18 18 18 18 18 18 18 18 18 18 18 17 17 17 17 16 16 16 15 15
45 43 41 40 38 39 36 34 34 33 31 29 28 27 25 27 29 29 30 29 27 25 23 22 20 20 20 20 20 20 20 20 19 19 19 19 19 18 18 18 18 17 17 17
46 45 44 42 41 38 35 34 36 36 35 33 33 30 29 29 30 31 31 29 28 26 27 25 23 22 22 22 23 22 22 21 21 21 22 21 21 21 20 20 20 20 19 19
48 47 45 44 43 41 37 35 37 39 39 37 36 35 33 32 32 32 31 30 28 28 29 28 26 25 24 25 25 25 24 24 23 24 24 24 24 24 23 22 22 21 21 21
51 49 48 47 46 43 39 38 38 40 41 39 39 37 35 34 33 33 33 33 31 31 31 30 30 28 27 27 27 27 27 27 26 26 26 26 26 25 24 24 24 24 24 23
52 52 50 49 47 44 39 38 40 41 41 41 40 39 38 36 36 36 34 34 34 34 34 33 32 30 29 29 30 29 29 29 29 29 29 28 28 27 27 26 26 26 26 26
50 50 49 48 46 43 41 41 41 42 42 42 41 41 40 38 37 36 36 37 36 36 36 36 34 33 32 32 32 31 31 32 32 32 31 30 30 30 30 29 29 29 29 28
47 47 47 47 46 45 44 42 42 43 43 42 43 43 42 41 40 39 39 39 39 39 39 39 37 36 35 35 35 34 34 34 34 33 33 32 32 32 32 32 32 32 32 31
46 46 45 45 45 44 44 43 42 43 43 43 42 43 43 43 42 42 42 42 42 42 42 41 40 39 39 39 39 37 36 36 35 35 34 34 34 34 34 34 34 34 34 33
42 43 43 44 45 44 43 42 42 42 42 42 42 43 43 44 43 42 43 43 44 44 44 44 43 42 42 40 40 39 38 38 37 36 36 36 35 36 36 35 35 35 35 34
Wind_Direction
197 192 189 190 191 191 174 158 166 318 328 326 329 335 346 358 2 3 5 6 7 8 7 8 11 11 13 15 16 15 10 10 6 8 14 13 358 239 227 228 227 227 226 224
204 203 202 202 202 202 192 189 204 250 280 298 312 328 336 347 356 358 0 2 3 2 3 6 8 10 10 11 14 15 12 11 7 4 4 1 340 291 260 231 224 229 232 228
210 211 214 213 210 203 199 205 220 243 268 282 291 308 328 339 349 351 353 355 356 357 356 1 4 5 6 8 11 11 9 7 4 0 355 350 341 301 267 250 240 238 235 234
217 221 223 222 215 206 210 216 226 240 251 262 279 292 317 330 338 342 346 349 350 352 354 356 1 2 2 5 7 8 7 6 3 359 352 342 326 303 282 269 249 241 238 238
222 225 227 226 220 216 220 225 228 233 243 253 267 277 296 316 330 337 339 343 346 348 351 354 355 359 0 2 4 4 4 4 5 2 355 343 331 308 296 283 262 246 238 239
226 230 229 227 223 221 226 229 227 230 237 242 260 280 298 309 318 328 337 342 345 346 348 348 350 353 357 359 1 3 2 -0 1 359 353 343 336 325 311 297 274 256 242 238
227 231 232 232 230 228 231 232 228 229 230 230 250 278 303 300 310 329 336 340 342 342 343 344 345 348 353 355 357 0 359 357 355 354 350 343 337 330 319 305 290 268 250 242
226 227 230 231 233 232 233 233 232 232 235 237 250 275 288 292 306 322 327 334 340 340 344 344 342 344 348 350 354 358 357 356 355 354 351 348 342 333 323 309 295 277 260 248
227 224 224 226 226 229 232 235 234 236 237 243 254 271 285 295 302 310 316 325 335 339 342 343 342 343 344 347 352 356 356 353 352 352 351 349 347 341 328 315 302 286 268 258
225 224 223 223 223 225 230 237 237 239 240 242 247 259 273 285 294 304 313 319 325 330 338 343 342 342 343 344 346 348 350 350 350 350 350 349 346 342 337 332 311 292 283 272
224 224 221 225 227 224 229 235 242 246 247 247 245 250 263 274 284 292 301 305 314 326 331 337 340 339 341 344 342 343 347 347 348 347 345 344 342 337 335 336 324 298 286 281
223 224 222 224 227 228 231 236 243 248 249 249 249 249 258 266 276 284 292 297 305 318 327 331 333 334 334 337 339 340 344 346 345 345 344 342 339 336 333 329 323 311 298 291
221 224 221 219 222 229 234 237 242 248 248 248 250 252 255 263 271 279 285 293 302 310 317 322 326 330 333 332 334 337 340 343 343 343 344 343 341 336 330 326 321 312 303 292
221 225 225 223 222 227 233 236 238 246 251 249 249 248 251 259 267 274 281 289 297 305 308 312 319 326 331 330 333 335 336 336 337 338 339 338 338 337 332 328 323 313 305 297
221 226 227 225 221 223 230 234 236 241 249 253 250 248 248 256 263 271 277 285 290 294 299 306 311 316 322 324 325 327 330 330 330 330 331 332 331 330 328 326 323 314 306 297
224 226 228 229 226 225 229 232 235 238 243 249 250 248 246 250 257 265 273 279 286 288 293 301 305 310 315 317 316 319 323 325 325 326 325 326 325 324 323 322 321 317 311 305
226 228 230 232 231 230 230 232 234 238 242 245 249 250 247 247 252 260 268 275 281 286 288 298 301 305 306 310 310 310 314 316 319 319 320 320 320 318 318 317 318 316 314 309
228 230 233 235 237 236 232 231 234 238 240 243 247 247 248 250 254 258 263 269 275 283 288 294 297 298 299 300 302 303 306 308 311 312 314 316 315 314 313 313 313 310 310 309
231 233 235 238 241 241 235 232 233 236 238 240 245 248 249 251 252 256 262 267 272 281 286 288 291 295 296 296 298 300 302 305 306 308 310 310 310 310 310 309 309 308 306 305
233 235 236 238 241 243 240 236 235 236 239 240 244 248 250 252 253 255 260 265 271 277 282 283 287 290 292 294 295 297 299 300 302 303 304 305 306 306 306 306 308 307 306 304
233 235 237 240 242 243 242 239 238 238 240 241 244 247 248 251 256 258 258 262 268 273 278 281 283 284 287 290 292 294 295 296 297 298 298 299 300 301 302 302 304 304 303 302
232 236 238 240 242 242 240 238 236 238 240 242 243 245 247 249 253 255 257 260 265 270 275 278 280 282 285 287 289 290 292 292 292 293 294 295 297 297 297 298 299 299 300 299
231 234 237 239 241 242 240 238 238 238 240 242 243 245 247 250 252 254 258 261 263 267 272 276 279 280 282 285 287 287 288 289 290 290 290 291 293 295 295 295 296 296 296 297
231 233 235 237 239 240 241 241 240 239 240 241 242 244 247 251 254 256 258 259 262 265 269 273 274 277 280 283 286 286 286 287 287 287 287 288 289 290 291 292 293 293 294 294
232 234 235 237 239 241 241 241 241 241 242 243 243 244 246 248 251 254 257 259 260 263 267 270 273 276 279 281 282 284 284 284 285 284 283 284 286 286 288 289 290 291 291 291
231 233 235 238 240 241 241 241 242 244 244 245 244 244 245 248 249 252 257 258 260 263 266 269 272 274 276 278 279 280 281 281 281 281 282 283 285 286 287 288 289 290 290 290
Height
5941 5944 5945 5946 5946 5947 5947 5947 5947 5947 5947 5947 5946 5945 5943 5941 5940 5939 5938 5936 5933 5930 5928 5925 5922 5920 5917 5915 5913 5911 5909 5906 5905 5903 5902 5901 5901 5901 5901 5901 5902 5903 5904 5905
5940 5942 5942 5943 5944 5945 5946 5946 5947 5946 5946 5946 5945 5945 5943 5941 5940 5939 5938 5936 5934 5931 5928 5926 5923 5921 5918 5916 5913 5911 5908 5906 5905 5903 5902 5901 5900 5900 5899 5900 5900 5901 5902 5903
5937 5939 5939 5941 5942 5943 5944 5945 5945 5945 5945 5944 5944 5944 5943 5941 5940 5939 5938 5936 5934 5932 5929 5926 5924 5921 5919 5916 5914 5911 5909 5907 5905 5903 5901 5900 5898 5898 5898 5898 5899 5899 5900 5901
5933 5936 5937 5938 5940 5941 5942 5943 5943 5943 5943 5943 5944 5943 5942 5941 5940 5939 5937 5936 5934 5931 5929 5926 5924 5922 5919 5916 5914 5911 5909 5906 5904 5902 5901 5899 5898 5897 5897 5896 5897 5897 5898 5898
5930 5932 5934 5936 5937 5938 5940 5941 5942 5942 5942 5942 5942 5941 5942 5940 5939 5938 5937 5935 5933 5931 5929 5926 5924 5921 5919 5916 5913 5911 5908 5906 5904 5902 5900 5898 5897 5896 5895 5895 5895 5895 5895 5896
5927 5929 5931 5933 5934 5936 5937 5938 5939 5940 5940 5941 5941 5940 5939 5938 5938 5937 5936 5934 5932 5930 5928 5925 5923 5921 5918 5916 5913 5911 5908 5906 5904 5902 5899 5897 5896 5895 5894 5893 5893 5893 5893 5893
5923 5925 5927 5930 5931 5933 5934 5936 5937 5937 5938 5939 5938 5937 5938 5936 5936 5935 5934 5933 5932 5930 5927 5925 5923 5921 5918 5916 5913 5911 5908 5905 5903 5901 5898 5896 5894 5893 5892 5891 5891 5891 5891 5891
5917 5921 5924 5926 5928 5929 5931 5933 5935 5935 5935 5936 5935 5935 5935 5934 5934 5933 5932 5932 5931 5929 5926 5924 5922 5919 5917 5915 5913 5910 5907 5905 5902 5900 5897 5895 5893 5892 5891 5890 5889 5889 5889 5889
5912 5916 5919 5921 5923 5925 5927 5929 5930 5931 5932 5932 5932 5932 5932 5931 5931 5931 5931 5930 5929 5927 5925 5923 5921 5918 5916 5914 5911 5909 5907 5905 5902 5899 5897 5894 5892 5890 5889 5888 5887 5887 5886 5886
5906 5910 5913 5915 5918 5920 5923 5925 5926 5927 5928 5928 5929 5929 5930 5929 5929 5929 5929 5928 5927 5926 5923 5922 5920 5918 5915 5912 5910 5908 5906 5904 5901 5898 5896 5894 5891 5889 5888 5886 5885 5885 5884 5884
5899 5904 5908 5910 5912 5915 5918 5920 5921 5923 5924 5925 5926 5928 5927 5926 5926 5926 5926 5926 5925 5924 5922 5920 5918 5916 5914 5912 5910 5907 5905 5903 5900 5897 5895 5893 5890 5889 5887 5885 5883 5883 5882 5882
5893 5897 5900 5904 5907 5910 5912 5915 5917 5919 5920 5921 5921 5925 5923 5922 5922 5923 5923 5923 5923 5922 5920 5919 5917 5915 5912 5910 5908 5906 5904 5901 5899 5896 5894 5891 5890 5888 5886 5884 5882 5881 5880 5880
5886 5889 5894 5897 5902 5904 5906 5909 5912 5914 5915 5916 5917 5921 5919 5918 5919 5919 5919 5920 5919 5919 5917 5916 5915 5913 5911 5908 5906 5904 5902 5900 5897 5895 5892 5890 5888 5886 5884 5882 5880 5879 5878 5877
5879 5882 5887 5892 5896 5899 5901 5904 5906 5908 5909 5910 5912 5914 5914 5914 5914 5915 5915 5916 5916 5915 5914 5913 5912 5910 5909 5906 5904 5902 5900 5898 5896 5893 5891 5889 5887 5884 5882 5880 5878 5876 5875 5874
5871 5875 5880 5885 5890 5893 5895 5898 5900 5902 5903 5905 5907 5908 5910 5909 5910 5910 5911 5911 5911 5911 5911 5910 5908 5907 5906 5904 5902 5900 5898 5896 5894 5891 5889 5887 5885 5882 5880 5878 5876 5874 5872 5871
5864 5868 5873 5878 5883 5886 5889 5892 5894 5896 5898 5899 5901 5903 5905 5905 5904 5904 5905 5906 5907 5907 5907 5906 5905 5903 5902 5901 5899 5898 5896 5894 5891 5889 5887 5884 5882 5880 5878 5876 5873 5871 5869 5867
5857 5861 5866 5870 5875 5879 5882 5887 5889 5891 5892 5893 5894 5897 5898 5899 5899 5900 5900 5901 5901 5902 5901 5901 5901 5900 5898 5897 5896 5894 5892 5890 5888 5886 5883 5881 5879 5877 5875 5873 5870 5868 5865 5863
5850 5854 5859 5863 5868 5870 5878 5881 5882 5884 5885 5887 5888 5890 5891 5893 5894 5895 5895 5896 5897 5897 5896 5896 5896 5895 5894 5893 5891 5890 5888 5886 5884 5882 5879 5877 5875 5873 5871 5869 5866 5864 5862 5860
5842 5847 5851 5855 5858 5862 5869 5873 5874 5876 5877 5880 5881 5883 5885 5886 5887 5888 5889 5890 5891 5891 5891 5891 5890 5890 5889 5888 5886 5885 5883 5881 5879 5877 5875 5873 5871 5869 5866 5864 5862 5860 5858 5856
5832 5837 5842 5846 5850 5854 5861 5864 5865 5869 5870 5873 5874 5876 5878 5880 5881 5883 5883 5884 5885 5885 5885 5885 5884 5884 5883 5882 5880 5879 5877 5876 5874 5872 5870 5868 5866 5864 5861 5859 5857 5855 5853 5851
5823 5827 5832 5836 5839 5844 5851 5855 5858 5861 5862 5865 5867 5869 5871 5873 5875 5877 5877 5878 5878 5879 5879 5879 5878 5877 5876 5875 5874 5873 5871 5870 5868 5866 5864 5862 5860 5858 5856 5854 5852 5850 5847 5845
5813 5817 5822 5826 5830 5837 5842 5845 5848 5850 5853 5856 5859 5862 5864 5866 5867 5869 5870 5871 5871 5872 5872 5871 5870 5869 5868 5868 5867 5866 5864 5863 5861 5859 5857 5855 5854 5851 5849 5847 5845 5843 5841 5839
5802 5807 5812 5817 5822 5827 5831 5835 5838 5840 5843 5847 5850 5853 5855 5857 5858 5860 5861 5862 5863 5863 5863 5863 5862 5861 5860 5859 5859 5858 5856 5855 5853 5851 5849 5848 5846 5844 5842 5840 5838 5836 5834 5831
5792 5797 5802 5806 5810 5815 5820 5824 5827 5831 5834 5837 5840 5844 5846 5848 5849 5851 5853 5854 5854 5854 5853 5853 5852 5851 5851 5850 5850 5849 5847 5846 5844 5842 5841 5839 5838 5836 5834 5832 5830 5828 5826 5823
5783 5787 5792 5796 5800 5805 5809 5813 5817 5821 5824 5827 5830 5833 5836 5839 5840 5842 5843 5844 5845 5845 5844 5843 5842 5843 5842 5841 5840 5839 5838 5836 5835 5833 5831 5830 5829 5827 5825 5823 5821 5819 5817 5814
5774 5778 5783 5786 5791 5795 5799 5803 5807 5811 5814 5817 5820 5823 5825 5827 5829 5831 5833 5833 5834 5834 5834 5833 5833 5833 5832 5831 5830 5829 5828 5826 5825 5823 5822 5820 5819 5817 5815 5813 5811 5809 5807 5804